METOP-C

Last updated on Thu Jul 03 2025 00:02:22 GMT+0000 (Coordinated Universal Time)

1 43689U 18087A 25183.59110812 .00000067 00000+0 50682-4 0 9997 2 43689 98.7145 243.6338 0002362 99.7780 260.3664 14.21492691345163
UTC large
Height (km)
Speed (km/s)
/
Latitude / Longitude
Inclination (degrees)
Orbital Period (minutes)
Azimuth
Elevation
Range (km)
Doppler Factor

Next 0 passes for location: London (51.5072 / 0.1276)

Sorry there are no passes over London.